| time (UTC) | temp F | wind direction | speed knots | gust knots | rain 1hr in | rain 24hr in | rain mn in | humidity % | barometer mb |
| 20260508164542 | 68 | 283 | 2.6 | 7.0 | 0.00 | 0.02 | 0.01 | 32 | 1016.8 |
| 20260508163041 | 70 | 0 | 0.9 | 5.2 | 0.00 | 0.02 | 0.01 | 34 | 1016.8 |
| 20260508161542 | 69 | 0 | 0.9 | 3.5 | 0.00 | 0.02 | 0.01 | 39 | 1017.3 |
| 20260508160042 | 67 | 0 | 0.9 | 7.0 | 0.00 | 0.02 | 0.01 | 34 | 1017.6 |
| 20260508154545 | 69 | 131 | 0.9 | 3.5 | 0.00 | 0.02 | 0.01 | 35 | 1017.6 |
| 20260508153043 | 68 | 0 | 0.0 | 1.7 | 0.00 | 0.02 | 0.01 | 40 | 1017.8 |
| 20260508151543 | 68 | 119 | 0.0 | 1.7 | 0.00 | 0.02 | 0.01 | 35 | 1017.9 |
| 20260508150041 | 67 | 41 | 0.0 | 0.9 | 0.00 | 0.02 | 0.01 | 47 | 1018.0 |
| 20260508144545 | 64 | 236 | 0.9 | 2.6 | 0.00 | 0.02 | 0.01 | 46 | 1018.1 |
| 20260508143048 | 65 | 107 | 0.0 | 1.7 | 0.00 | 0.02 | 0.01 | 55 | 1018.1 |
| 20260508141554 | 62 | 0 | 0.0 | 4.3 | 0.00 | 0.02 | 0.01 | 58 | 1018.0 |
| 20260508140041 | 61 | 186 | 0.0 | 4.3 | 0.00 | 0.02 | 0.01 | 54 | 1018.0 |
| 20260508134556 | 60 | 0 | 0.0 | 4.3 | 0.00 | 0.02 | 0.01 | 54 | 1017.8 |
| 20260508133046 | 61 | 0 | 0.0 | 0.0 | 0.00 | 0.02 | 0.01 | 58 | 1017.9 |
| 20260508131544 | 61 | 0 | 0.0 | 0.0 | 0.00 | 0.02 | 0.01 | 75 | 1017.8 |
| 20260508130042 | 58 | 0 | 0.0 | 0.0 | 0.00 | 0.02 | 0.01 | 88 | 1017.7 |
| 20260508124541 | 54 | 0 | 0.0 | 0.0 | 0.00 | 0.06 | 0.01 | 90 | 1017.6 |
| 20260508123051 | 51 | 0 | 0.0 | 0.0 | 0.00 | 0.06 | 0.01 | 100 | 1017.7 |
| 20260508121546 | 49 | 0 | 0.0 | 0.0 | 0.00 | 0.06 | 0.01 | 100 | 1017.4 |
| 20260508120051 | 46 | 0 | 0.0 | 0.0 | 0.00 | 0.06 | 0.01 | 100 | 1017.2 |
| 20260508114549 | 43 | 0 | 0.0 | 0.0 | 0.00 | 0.19 | 0.01 | 100 | 1017.1 |
| 20260508113104 | 40 | 0 | 0.0 | 0.0 | 0.00 | 0.19 | 0.01 | 99 | 1016.8 |
| 20260508111545 | 39 | 0 | 0.0 | 0.0 | 0.00 | 0.19 | 0.01 | 99 | 1016.5 |
| 20260508110041 | 38 | 0 | 0.0 | 0.0 | 0.00 | 0.19 | 0.01 | 98 | 1016.4 |
| 20260508104545 | 38 | 0 | 0.0 | 0.0 | 0.00 | 0.19 | 0.01 | 98 | 1016.2 |
| 20260508103047 | 38 | 0 | 0.0 | 0.0 | 0.00 | 0.19 | 0.01 | 98 | 1015.9 |
| 20260508101541 | 38 | 0 | 0.0 | 0.0 | 0.01 | 0.19 | 0.01 | 98 | 1015.7 |
| 20260508100042 | 39 | 0 | 0.0 | 0.0 | 0.01 | 0.19 | 0.01 | 98 | 1015.5 |
| 20260508094603 | 39 | 0 | 0.0 | 0.0 | 0.01 | 0.19 | 0.01 | 98 | 1015.4 |
| 20260508093046 | 39 | 0 | 0.0 | 0.0 | 0.00 | 0.18 | 0.00 | 98 | 1015.4 |
| 20260508091544 | 40 | 0 | 0.0 | 0.0 | 0.00 | 0.18 | 0.00 | 98 | 1015.2 |
| 20260508090049 | 40 | 0 | 0.0 | 0.0 | 0.00 | 0.18 | 0.00 | 98 | 1015.2 |
| 20260508084541 | 40 | 0 | 0.0 | 0.0 | 0.00 | 0.19 | 0.00 | 98 | 1015.1 |
| 20260508083042 | 41 | 0 | 0.0 | 0.0 | 0.00 | 0.19 | 0.00 | 98 | 1015.2 |
| 20260508081608 | 41 | 0 | 0.0 | 0.0 | 0.00 | 0.19 | 0.00 | 98 | 1015.0 |
| 20260508080045 | 41 | 0 | 0.0 | 0.0 | 0.00 | 0.19 | 0.00 | 97 | 1014.9 |
| 20260508074543 | 42 | 0 | 0.0 | 0.0 | 0.00 | 0.19 | 0.00 | 98 | 1014.8 |
| 20260508073052 | 42 | 0 | 0.0 | 0.0 | 0.00 | 0.19 | 0.00 | 97 | 1014.7 |
| 20260508071545 | 42 | 0 | 0.0 | 0.0 | 0.00 | 0.19 | 0.00 | 97 | 1014.6 |
| 20260508070053 | 42 | 0 | 0.0 | 0.0 | 0.00 | 0.19 | 0.00 | 97 | 1014.5 |
| 20260508064547 | 42 | 0 | 0.0 | 0.0 | 0.00 | 0.20 | 0.00 | 97 | 1014.3 |
| 20260508063053 | 43 | 0 | 0.0 | 0.0 | 0.00 | 0.20 | 0.00 | 97 | 1014.5 |
| 20260508061553 | 43 | 0 | 0.0 | 0.0 | 0.00 | 0.20 | 0.00 | 97 | 1014.3 |
| 20260508060043 | 43 | 0 | 0.0 | 0.0 | 0.00 | 0.20 | 0.00 | 97 | 1014.4 |
| 20260508054544 | 43 | 0 | 0.0 | 0.0 | 0.00 | 0.25 | 0.00 | 97 | 1014.3 |
| 20260508053044 | 44 | 0 | 0.0 | 0.0 | 0.00 | 0.25 | 0.00 | 96 | 1014.2 |
| 20260508051552 | 44 | 0 | 0.0 | 0.0 | 0.00 | 0.25 | 0.00 | 96 | 1014.2 |
| 20260508050043 | 44 | 0 | 0.0 | 0.0 | 0.00 | 0.25 | 0.00 | 96 | 1014.0 |
| 20260508044542 | 44 | 0 | 0.0 | 0.0 | 0.00 | 0.30 | 0.00 | 96 | 1014.0 |
| 20260508043041 | 45 | 0 | 0.0 | 0.0 | 0.00 | 0.30 | 0.00 | 95 | 1014.0 |
| 20260508041548 | 45 | 0 | 0.0 | 0.0 | 0.00 | 0.30 | 0.00 | 95 | 1013.9 |
| 20260508040053 | 45 | 0 | 0.0 | 0.0 | 0.00 | 0.30 | 0.00 | 95 | 1013.8 |
| 20260508034543 | 46 | 0 | 0.0 | 0.0 | 0.00 | 0.30 | 0.30 | 94 | 1013.8 |
| 20260508033042 | 46 | 0 | 0.0 | 0.0 | 0.00 | 0.30 | 0.30 | 94 | 1013.9 |
| 20260508031541 | 46 | 0 | 0.0 | 0.0 | 0.00 | 0.30 | 0.30 | 93 | 1013.8 |
| 20260508030041 | 47 | 0 | 0.0 | 1.7 | 0.00 | 0.30 | 0.30 | 92 | 1013.8 |
| 20260508024550 | 48 | 0 | 0.0 | 1.7 | 0.00 | 0.35 | 0.30 | 91 | 1013.6 |
| 20260508023043 | 48 | 53 | 0.0 | 0.9 | 0.00 | 0.35 | 0.30 | 91 | 1013.5 |
| 20260508021543 | 49 | 0 | 0.0 | 0.9 | 0.00 | 0.35 | 0.30 | 89 | 1013.3 |
| 20260508020042 | 49 | 312 | 0.0 | 2.6 | 0.00 | 0.35 | 0.30 | 89 | 1013.0 |
| 20260508014543 | 50 | 0 | 0.0 | 1.7 | 0.00 | 0.38 | 0.30 | 88 | 1012.7 |
| 20260508013048 | 52 | 0 | 0.0 | 0.9 | 0.00 | 0.38 | 0.30 | 85 | 1012.3 |
| 20260508011542 | 53 | 0 | 0.0 | 0.9 | 0.00 | 0.38 | 0.30 | 80 | 1012.2 |
| 20260508010041 | 55 | 0 | 0.0 | 0.9 | 0.00 | 0.38 | 0.30 | 72 | 1011.8 |
| 20260508004546 | 56 | 181 | 0.9 | 6.1 | 0.00 | 0.43 | 0.30 | 72 | 1011.6 |
| 20260508003044 | 56 | 44 | 1.7 | 3.5 | 0.00 | 0.43 | 0.30 | 71 | 1011.5 |
| 20260508001542 | 57 | 23 | 0.9 | 7.8 | 0.00 | 0.43 | 0.30 | 72 | 1011.4 |
| 20260508000042 | 58 | 0 | 0.0 | 1.7 | 0.00 | 0.43 | 0.30 | 76 | 1011.4 |
| 20260507234541 | 59 | 147 | 0.0 | 1.7 | 0.00 | 0.47 | 0.30 | 74 | 1011.2 |
| 20260507233048 | 60 | 95 | 0.0 | 3.5 | 0.00 | 0.47 | 0.30 | 71 | 1011.2 |
| 20260507231546 | 61 | 150 | 0.0 | 5.2 | 0.00 | 0.47 | 0.30 | 72 | 1011.1 |
| 20260507230048 | 62 | 63 | 1.7 | 5.2 | 0.00 | 0.47 | 0.30 | 74 | 1010.7 |
| 20260507224544 | 62 | 51 | 0.0 | 2.6 | 0.00 | 0.47 | 0.30 | 76 | 1010.3 |
| 20260507223041 | 62 | 52 | 0.9 | 5.2 | 0.00 | 0.47 | 0.30 | 75 | 1010.0 |
| 20260507221543 | 63 | 158 | 0.9 | 3.5 | 0.00 | 0.47 | 0.30 | 86 | 1009.7 |
| 20260507220042 | 64 | 131 | 0.0 | 0.9 | 0.00 | 0.47 | 0.30 | 86 | 1009.5 |
| 20260507214554 | 64 | 0 | 0.0 | 4.3 | 0.00 | 0.47 | 0.30 | 87 | 1009.4 |
| 20260507213044 | 64 | 140 | 1.7 | 7.0 | 0.00 | 0.47 | 0.30 | 87 | 1009.3 |
| 20260507211548 | 64 | 121 | 2.6 | 7.0 | 0.00 | 0.47 | 0.30 | 86 | 1008.9 |
| 20260507210049 | 65 | 141 | 0.9 | 7.0 | 0.00 | 0.47 | 0.30 | 86 | 1008.8 |
| 20260507204543 | 66 | 194 | 1.7 | 9.6 | 0.00 | 0.47 | 0.30 | 83 | 1008.5 |
| 20260507203058 | 68 | 91 | 2.6 | 6.1 | 0.00 | 0.47 | 0.30 | 82 | 1008.1 |
| 20260507201551 | 69 | 124 | 1.7 | 7.8 | 0.00 | 0.47 | 0.30 | 81 | 1007.9 |
| 20260507200103 | 70 | 183 | 5.2 | 7.8 | 0.00 | 0.47 | 0.30 | 79 | 1007.8 |
| 20260507194541 | 72 | 183 | 2.6 | 10.4 | 0.00 | 0.47 | 0.30 | 78 | 1007.7 |
| 20260507193047 | 77 | 131 | 1.7 | 5.2 | 0.01 | 0.47 | 0.30 | 69 | 1007.7 |
| 20260507191541 | 77 | 183 | 1.7 | 4.3 | 0.01 | 0.47 | 0.30 | 71 | 1007.8 |
| 20260507190056 | 74 | 110 | 0.0 | 3.5 | 0.01 | 0.47 | 0.30 | 87 | 1007.8 |
| 20260507184550 | 70 | 0 | 0.9 | 2.6 | 0.01 | 0.47 | 0.30 | 85 | 1007.6 |
| 20260507183046 | 72 | 0 | 0.0 | 2.6 | 0.00 | 0.46 | 0.29 | 79 | 1008.0 |
| 20260507181541 | 73 | 260 | 1.7 | 5.2 | 0.00 | 0.46 | 0.29 | 73 | 1008.0 |
| 20260507180046 | 74 | 247 | 1.7 | 6.1 | 0.00 | 0.46 | 0.29 | 72 | 1007.9 |
| 20260507174550 | 75 | 176 | 0.9 | 4.3 | 0.00 | 0.46 | 0.29 | 72 | 1008.1 |
| 20260507173044 | 75 | 219 | 0.0 | 4.3 | 0.00 | 0.46 | 0.29 | 73 | 1008.1 |
| 20260507171543 | 75 | 235 | 1.7 | 6.1 | 0.00 | 0.46 | 0.29 | 72 | 1008.3 |
| 20260507170043 | 75 | 275 | 0.9 | 5.2 | 0.00 | 0.46 | 0.29 | 77 | 1008.4 |